This is the latest recevied weather packets stored in our database for station/object K0SNA. If no packets are shown the sender has not sent any weather packets the latest 10 day(s).
| Time | Temp. | Humidity | Pressure | Rain* | Wind** | Luminosity | Snow |
|---|---|---|---|---|---|---|---|
| 1777377704 | 5° C | 79% | 1013.3 hPa | 0 mm | - | 32 W/m² | - |
| 1777377399 | 5° C | 79% | 1013.2 hPa | 0 mm | - | 27 W/m² | - |
| 1777377096 | 5° C | 79% | 1013.1 hPa | 0 mm | - | 24 W/m² | - |
| 1777376793 | 5° C | 79% | 1013.2 hPa | 0 mm | - | 18 W/m² | - |
| 1777376490 | 5° C | 79% | 1013 hPa | 0 mm | - | 16 W/m² | - |
| 1777376186 | 5° C | 79% | 1013 hPa | 0 mm | - | 14 W/m² | - |
| 1777375881 | 5° C | 79% | 1012.6 hPa | 0 mm | - | 12 W/m² | - |
| 1777375576 | 5° C | 80% | 1012.7 hPa | 0 mm | - | 9 W/m² | - |
| 1777375271 | 5° C | 80% | 1012.6 hPa | 0 mm | - | 7 W/m² | - |
| 1777374968 | 5° C | 80% | 1012.4 hPa | 0 mm | - | 5 W/m² | - |
| 1777374664 | 5° C | 79% | 1012.3 hPa | 0 mm | - | 3 W/m² | - |
| 1777374360 | 5° C | 80% | 1012.1 hPa | 0 mm | - | 2 W/m² | - |
| 1777374056 | 5° C | 80% | 1011.8 hPa | 0 mm | - | 1 W/m² | - |
| 1777373752 | 5° C | 80% | 1011.6 hPa | 0 mm | - | 0 W/m² | - |
| 1777373450 | 5.56° C | 80% | 1011.5 hPa | 0 mm | - | 0 W/m² | - |
| 1777373145 | 5.56° C | 80% | 1011.5 hPa | 0 mm | - | 0 W/m² | - |
| 1777372841 | 5.56° C | 80% | 1011.5 hPa | 0 mm | - | 0 W/m² | - |
| 1777372535 | 5.56° C | 81% | 1011.4 hPa | 0 mm | - | 0 W/m² | - |
| 1777372233 | 5.56° C | 81% | 1011.4 hPa | 0 mm | - | 0 W/m² | - |
| 1777371928 | 5.56° C | 81% | 1011.3 hPa | 0 mm | - | 0 W/m² | - |
| 1777371625 | 5.56° C | 82% | 1011.3 hPa | 0 mm | - | 0 W/m² | - |
| 1777371322 | 5.56° C | 82% | 1011.3 hPa | 0 mm | - | 0 W/m² | - |
| 1777371018 | 5.56° C | 83% | 1011.3 hPa | 0 mm | - | 0 W/m² | - |
| 1777370714 | 5.56° C | 83% | 1011.2 hPa | 0 mm | - | 0 W/m² | - |
| 1777370410 | 5.56° C | 83% | 1011.2 hPa | 0 mm | - | 0 W/m² | - |
* Rain latest hour (hover to see other rain measurements)
** Current wind speed in m/s (hover to see current wind gust speed)